sat.trackr.live / text

‹ back to catalog

STARLINK-35979

NORAD 66809 · 2025-278U

PAYLOAD ACTIVE UNKNOWN

§ Identity

Operator
Country
US
Launch date
2025-12-01
Launch site
AFETR
Launch vehicle
Mass (kg)
RCS (m²)

Purposes: comms

External: N2YO · Heavens-Above · Gunter

§ Orbital elements

Epoch: 2026-05-24T23:41:40.655904Z

Period
94.27 min
Inclination
43.0017°
Eccentricity
0.0001371
Mean motion
15.27592520 rev/d
Perigee alt
482.1 km
Apogee alt
484.0 km
Semi-major
6,861.1 km
B*
5.3711e-4
RAAN
43.8346°
Arg perigee
257.8308°
Mean anomaly
102.2391°
Rev number
2,687

§ Raw data

STARLINK-359791 66809U 25278U   26144.98727611  .00014553  00000+0  53711-3 0  99982 66809  43.0017  43.8346 0001371 257.8308 102.2391 15.27592520 26878

JSON: /api/v1/satellites/66809 · /tle

For live sub-satellite position, see the globe view (requires WebGL).

§ Visibility from observer

Set your observer location to see the next 7 days of passes ≥ 10°. The values pass through the URL so the page stays shareable.

No JS? Fill the form by hand. The geolocation button needs JavaScript.